Location: Cumbre Roja
(10.2766°N, 67.0675°W)
Time: 02:23:38
(UTC+00:00)

NATO 3D Rocket - Pass Details

Date: 18 November 2025
Orbit: 670 x 2292 km, 21.5° (Epoch: 08 December)

Event Time Altitude Azimuth Distance (km) Brightness Sun altitude
Rises 22:17:02 0° 259° (WSW) 3,237 9.3 -4.2°
Reaches altitude 10° 22:19:13 10° 262° (W) 2,430 7.9 -4.7°
Maximum altitude 22:24:57 66° 344° (NNW) 1,110 4.3 -6.0°
Drops below altitude 10° 22:33:12 10° 66° (ENE) 3,444 6.2 -8.0°
Enters shadow 22:33:34 - 66° (ENE) 3,569 6.2 -8.1°
